Weather in Bytkov

Ukraine / Ivano-Frankovsk District     48°37′28″N   24°29′08″E
temp.,
°C
wind,
m/s
gust,
m/s
humid.,
%
clouds,
%
prec.,
mm/h
press.,
hPa
HPBL,
m
24 july, sat
sat2400:00+14ssw1189100 0.0 101816
03:00+14ssw1189100 0.0 101824
06:00+13ssw1188100 0.0 101718
09:00+16sse1183100 0.1 1017137
12:00+18e126971 0.6 1017654
15:00+19e227362 1.7 1017711
18:00+18se118673 1.6 1018123
21:00+15s118998 1.9 101814
25 july, sun
sun2500:00+14ssw229238 0.1 101829
03:00+13sw22923 0.1 101831
06:00+12sw32900 0.0 101934
09:00+19ssw12645 0.0 1018248
12:00+24ese134130 0.0 10172308
15:00+24e344890 0.0 10161585
18:00+21ene24745 0.9 1017371
21:00+17sw11895 1.1 101711
26 july, mon
mon2600:00+14sw32845 0.0 101931
03:00+14sw337713 0.0 101841
06:00+17sw336399 0.0 101755
09:00+21ssw236099 0.0 1017189
12:00+25se1348100 0.0 1017792
15:00+27ese144074 0.0 10161992
18:00+25ese1260100 0.0 1016208
21:00+19ssw2276100 0.0 101725
27 july, tue
tue2700:00+17sw328372 0.4 101834
03:00+16sw348088 0.6 101862
06:00+15sw34875 0.0 101868
09:00+21sw346945 0.0 1017219
12:00+28wsw374144 0.0 10161417
15:00+29wsw59355 0.0 10162257
18:00+28sw36465 0.0 10161719
21:00+21ssw227489 0.0 101614
28 july, wed
wed2800:00+19sw337323 0.0 101647
03:00+18sw347975 0.2 101555
06:00+18sw348091 0.0 101562
09:00+21ssw3973100 0.0 1014621
12:00+26sw7174753 0.0 10122148
15:00+26wsw7154587 0.0 10122032
18:00+26wsw612480 0.0 10121673
21:00+21w411530 0.0 1013492